Location: Erdweis
(48.5167°N, 15.3500°E)
Time: 17:29:38
(UTC+00:00)

ATLAS 3B R/B - Pass Details

Date: 18 September 2020
Orbit: 1016 x 1179 km, 63.8° (Epoch: 28 October)

Event Time Altitude Azimuth Distance (km) Brightness Sun altitude
Rises 19:31:49 0° 318° (NW) 3,812 6.9 -23.9°
Reaches altitude 10° 19:34:31 10° 324° (NW) 2,876 5.9 -24.3°
Maximum altitude 19:41:06 49° 38° (NE) 1,376 3.2 -25.2°
Enters shadow 19:42:49 41° 77° (ENE) 1,537 3.2 -25.4°
